Spokane Felts, WA
on Thursday, December 20, 2012

Thursday
Previous Day Next Day
Daily Summary
 ActualAverageRecord
Temperature
Mean Temperature °F / °C 29°F / -2°C  
Max Temperature 45°F / 7°C 35°F / 2°C 51°F / 10°C (1996)
Min Temperature 33°F / 1°C 23°F / -5°C -3°F / -19°C (2008)
Degree Days
Heating Degree Days 26 36  
Month to date heating degree days 531 699  
Since 1 July heating degree days 1804 2273  
Cooling Degree Days 0 0  
Month to date cooling degree days 0 0  
Year to date cooling degree days 509 406  
Moisture
Dew Point 27°F / -3°C   
Average Humidity 60    
Maximum Humidity 82    
Minimum Humidity 37    
Precipitation
Precipitation 0.24 in / 6.10 cm 0.08 in / 2.03 cm 0.24 in / 0.61 cm (2012)
Month to date precipitation 1.23 1.68  
Year to date precipitation 19.99 16.90  
Wind
Wind Speed 9 mph / 14 km/h   
Max Wind Speed 20 mph / 32 km/h   
Max Gust Speed 26 mph / 42 km/h   
Visibility 6 miles / 9 kilometers   
Events Rain , Snow   

Key: T is trace of precipitation, MM is missing value
Source: NWS Daily Summary
Time(PST)TemperatureDew PointHumidity Pressure Visibility Wind DirectionWind SpeedGust SpeedPrecipitationEvents Conditions
12:02 AM 33.8°F / 1.0°C 26.6°F / -3.0°C 75% 29.91 in / 1012.8 hPa 1.8 miles / 2.8 kilometers North 3.5 mph / 5.6 km/h - 0.00 in / 0.0 cm Snow Light Snow
12:11 AM 33.8°F / 1.0°C 28.4°F / -2.0°C 81% 29.90 in / 1012.4 hPa 1.5 miles / 2.4 kilometers Variable 5.8 mph / 9.3 km/h - 0.00 in / 0.0 cm Snow Light Snow
12:19 AM 33.8°F / 1.0°C 26.6°F / -3.0°C 75% 29.90 in / 1012.4 hPa 2.0 miles / 3.2 kilometers Variable 3.5 mph / 5.6 km/h - 0.01 in / 0.3 cm Snow Light Snow
12:23 AM 33.8°F / 1.0°C 26.6°F / -3.0°C 75% 29.90 in / 1012.4 hPa 4.0 miles / 6.4 kilometers East 5.8 mph / 9.3 km/h - 0.01 in / 0.3 cm Snow Light Snow
12:28 AM 33.8°F / 1.0°C 26.6°F / -3.0°C 75% 29.89 in / 1012.1 hPa 6.0 miles / 9.7 kilometers Variable 3.5 mph / 5.6 km/h - 0.01 in / 0.3 cm Snow Light Snow
12:53 AM 34.0°F / 1.1°C 27.0°F / -2.8°C 75% 29.92 in / 1013.1 hPa 4.0 miles / 6.4 kilometers East 10.4 mph / 16.7 km/h 16.1 mph / 25.9 km/h 0.01 in / 0.3 cm Snow Light Snow
1:53 AM 35.1°F / 1.7°C 27.0°F / -2.8°C 72% 29.92 in / 1013.1 hPa 10.0 miles / 16.1 kilometers ESE 10.4 mph / 16.7 km/h 18.4 mph / 29.6 km/h 0.01 in / 0.3 cm   Overcast
2:08 AM 35.6°F / 2.0°C 26.6°F / -3.0°C 70% 29.89 in / 1012.1 hPa 2.5 miles / 4.0 kilometers SE 9.2 mph / 14.8 km/h - 0.00 in / 0.0 cm Snow Light Snow
2:19 AM 33.8°F / 1.0°C 28.4°F / -2.0°C 81% 29.88 in / 1011.7 hPa 1.8 miles / 2.8 kilometers Variable 6.9 mph / 11.1 km/h 16.1 mph / 25.9 km/h 0.00 in / 0.0 cm Snow Light Snow
2:53 AM 33.1°F / 0.6°C 28.0°F / -2.2°C 82% 29.93 in / 1013.4 hPa 1.0 miles / 1.6 kilometers ESE 9.2 mph / 14.8 km/h - 0.01 in / 0.3 cm Snow Light Snow
3:05 AM 33.8°F / 1.0°C 28.4°F / -2.0°C 81% 29.88 in / 1011.7 hPa 2.0 miles / 3.2 kilometers East 5.8 mph / 9.3 km/h 17.3 mph / 27.8 km/h 0.00 in / 0.0 cm Snow Light Snow
3:14 AM 33.8°F / 1.0°C 28.4°F / -2.0°C 81% 29.88 in / 1011.7 hPa 1.0 miles / 1.6 kilometers Variable 4.6 mph / 7.4 km/h - 0.00 in / 0.0 cm Snow Light Snow
3:18 AM 33.8°F / 1.0°C 28.4°F / -2.0°C 81% 29.88 in / 1011.7 hPa 0.8 miles / 1.2 kilometers Variable 3.5 mph / 5.6 km/h - 0.00 in / 0.0 cm Snow Light Snow
3:26 AM 33.8°F / 1.0°C 28.4°F / -2.0°C 81% 29.88 in / 1011.7 hPa 1.0 miles / 1.6 kilometers Calm Calm - 0.00 in / 0.0 cm Snow Light Snow
3:43 AM 33.8°F / 1.0°C 28.4°F / -2.0°C 81% 29.87 in / 1011.4 hPa 2.0 miles / 3.2 kilometers Variable 4.6 mph / 7.4 km/h - 0.01 in / 0.3 cm Snow Light Snow
3:53 AM 33.1°F / 0.6°C 28.0°F / -2.2°C 82% 29.91 in / 1012.9 hPa 2.0 miles / 3.2 kilometers East 10.4 mph / 16.7 km/h - 0.01 in / 0.3 cm Snow Light Snow
4:00 AM 33.8°F / 1.0°C 28.4°F / -2.0°C 81% 29.86 in / 1011.1 hPa 1.2 miles / 2.0 kilometers East 9.2 mph / 14.8 km/h - 0.00 in / 0.0 cm Snow Light Snow
4:30 AM 33.8°F / 1.0°C 28.4°F / -2.0°C 81% 29.86 in / 1011.1 hPa 2.5 miles / 4.0 kilometers Variable 6.9 mph / 11.1 km/h - 0.00 in / 0.0 cm Snow Light Snow
4:37 AM 33.8°F / 1.0°C 28.4°F / -2.0°C 81% 29.85 in / 1010.7 hPa 3.0 miles / 4.8 kilometers Variable 5.8 mph / 9.3 km/h - 0.01 in / 0.3 cm Snow Light Snow
4:53 AM 34.0°F / 1.1°C 28.9°F / -1.7°C 82% 29.90 in / 1012.3 hPa 2.5 miles / 4.0 kilometers Variable 3.5 mph / 5.6 km/h - 0.01 in / 0.3 cm Snow Light Snow
5:29 AM 33.8°F / 1.0°C 28.4°F / -2.0°C 81% 29.85 in / 1010.7 hPa 4.0 miles / 6.4 kilometers Variable 4.6 mph / 7.4 km/h - 0.01 in / 0.3 cm Snow Light Snow
5:36 AM 33.8°F / 1.0°C 30.2°F / -1.0°C 87% 29.85 in / 1010.7 hPa 2.5 miles / 4.0 kilometers Calm Calm - 0.01 in / 0.3 cm Snow Light Snow
5:53 AM 34.0°F / 1.1°C 28.9°F / -1.7°C 82% 29.88 in / 1011.9 hPa 2.5 miles / 4.0 kilometers Variable 5.8 mph / 9.3 km/h - 0.01 in / 0.3 cm Snow Light Snow
5:57 AM 33.8°F / 1.0°C 28.4°F / -2.0°C 81% 29.84 in / 1010.4 hPa 3.0 miles / 4.8 kilometers ENE 6.9 mph / 11.1 km/h - 0.00 in / 0.0 cm Snow Light Snow
6:53 AM 36.0°F / 2.2°C 28.0°F / -2.2°C 73% 29.87 in / 1011.5 hPa 10.0 miles / 16.1 kilometers Variable 4.6 mph / 7.4 km/h - 0.02 in / 0.5 cm   Overcast
7:53 AM 37.0°F / 2.8°C 27.0°F / -2.8°C 67% 29.86 in / 1011.1 hPa 10.0 miles / 16.1 kilometers East 9.2 mph / 14.8 km/h - 0.03 in / 0.8 cm   Overcast
8:53 AM 36.0°F / 2.2°C 28.0°F / -2.2°C 73% 29.86 in / 1010.9 hPa 10.0 miles / 16.1 kilometers Calm Calm - 0.05 in / 1.3 cm   Overcast
9:53 AM 37.9°F / 3.3°C 25.0°F / -3.9°C 60% 29.85 in / 1010.8 hPa 10.0 miles / 16.1 kilometers East 8.1 mph / 13.0 km/h - 0.05 in / 1.3 cm   Overcast
10:53 AM 39.0°F / 3.9°C 27.0°F / -2.8°C 62% 29.83 in / 1010.0 hPa 10.0 miles / 16.1 kilometers East 9.2 mph / 14.8 km/h - 0.01 in / 0.3 cm   Overcast
11:53 AM 39.0°F / 3.9°C 28.0°F / -2.2°C 65% 29.79 in / 1008.6 hPa 10.0 miles / 16.1 kilometers East 12.7 mph / 20.4 km/h - 0.01 in / 0.3 cm   Overcast
12:53 PM 42.1°F / 5.6°C 24.1°F / -4.4°C 49% 29.78 in / 1008.2 hPa 10.0 miles / 16.1 kilometers ESE 9.2 mph / 14.8 km/h - N/A   Overcast
1:53 PM 43.0°F / 6.1°C 24.1°F / -4.4°C 47% 29.76 in / 1007.8 hPa 10.0 miles / 16.1 kilometers SE 8.1 mph / 13.0 km/h - N/A   Overcast
2:53 PM 44.1°F / 6.7°C 21.0°F / -6.1°C 40% 29.77 in / 1007.9 hPa 10.0 miles / 16.1 kilometers South 11.5 mph / 18.5 km/h 20.7 mph / 33.3 km/h N/A   Overcast
3:53 PM 45.0°F / 7.2°C 19.9°F / -6.7°C 37% 29.77 in / 1008.1 hPa 10.0 miles / 16.1 kilometers SSE 17.3 mph / 27.8 km/h 25.3 mph / 40.7 km/h N/A   Overcast
4:53 PM 45.0°F / 7.2°C 19.9°F / -6.7°C 37% 29.78 in / 1008.2 hPa 10.0 miles / 16.1 kilometers South 13.8 mph / 22.2 km/h 24.2 mph / 38.9 km/h N/A   Overcast
5:53 PM 44.1°F / 6.7°C 21.0°F / -6.1°C 40% 29.80 in / 1009.1 hPa 10.0 miles / 16.1 kilometers South 11.5 mph / 18.5 km/h - N/A   Mostly Cloudy
6:53 PM 43.0°F / 6.1°C 21.9°F / -5.6°C 43% 29.82 in / 1009.7 hPa 10.0 miles / 16.1 kilometers SSW 9.2 mph / 14.8 km/h - N/A   Mostly Cloudy
7:53 PM 39.9°F / 4.4°C 23.0°F / -5.0°C 51% 29.85 in / 1010.8 hPa 10.0 miles / 16.1 kilometers SW 8.1 mph / 13.0 km/h - N/A   Mostly Cloudy
8:53 PM 39.0°F / 3.9°C 25.0°F / -3.9°C 57% 29.88 in / 1011.6 hPa 10.0 miles / 16.1 kilometers SW 8.1 mph / 13.0 km/h - N/A   Overcast
9:53 PM 39.0°F / 3.9°C 26.1°F / -3.3°C 60% 29.89 in / 1012.0 hPa 10.0 miles / 16.1 kilometers SW 3.5 mph / 5.6 km/h - N/A   Overcast
10:53 PM 37.9°F / 3.3°C 28.0°F / -2.2°C 68% 29.90 in / 1012.5 hPa 10.0 miles / 16.1 kilometers South 4.6 mph / 7.4 km/h - N/A   Overcast
11:25 PM 37.4°F / 3.0°C 28.4°F / -2.0°C 70% 29.88 in / 1011.7 hPa 10.0 miles / 16.1 kilometers SE 9.2 mph / 14.8 km/h - N/A   Overcast
11:53 PM 36.0°F / 2.2°C 30.0°F / -1.1°C 79% 29.91 in / 1012.8 hPa 10.0 miles / 16.1 kilometers ESE 6.9 mph / 11.1 km/h - 0.01 in / 0.3 cm Rain Light Rain
Moon Phase
Dec. 20 Dec. 28 Jan. 04 Jan. 11 Jan. 18
Sunrise:07:34 AM (PST) Moon Rise:11:40 AM (PST)12/20
Sunset:03:59 PM (PST) Moon Set:12:03 AM (PST)12/20

Copyright © 2014 The Weather Underground, Inc.